Weather in Hyeres

France     43°07′03″N   6°07′42″E
temp.,
°C
wind,
m/s
gust,
m/s
humid.,
%
clouds,
%
prec.,
mm/h
press.,
hPa
HPBL,
m
25 october, mon
mon2523:00+19ene56622 0.0 1022716
02:00+19ene33595 0.0 1022545
05:00+18wnw34610 0.0 1020614
08:00+18nw34630 0.0 1020419
11:00+17ne33570 0.0 1021249
14:00+18sw22550 0.0 1020207
17:00+19w55600 0.0 1019392
20:00+19w66650 0.0 1019336
26 october, tue
tue2623:00+18nw44635 0.0 1020360
02:00+17nnw336250 0.0 1020287
05:00+17nnw336348 0.0 1019276
08:00+16n33651 0.0 1019231
11:00+17ne33590 0.0 1020315
14:00+18e33713 0.0 1019568
17:00+18e33705 0.0 1019532
20:00+18e336948 0.0 1020601
27 october, wed
wed2723:00+18ene33700 0.0 1021466
02:00+17ene33725 0.0 1021376
05:00+17ne337382 0.0 1022381
08:00+17ne337473 0.0 1022357
11:00+17ne22695 0.0 1024313
14:00+17se12685 0.0 1023336
17:00+18ssw11625 0.0 1022350
20:00+18wsw336362 0.0 1021460
28 october, thu
thu2823:00+18wnw2263100 0.0 1021403
02:00+18nne22655 0.0 1020272
05:00+17ne43675 0.0 1020354
08:00+17ene55700 0.0 1020500
11:00+18ene88650 0.0 1021994
14:00+18ene77650 0.0 1019830
17:00+18e77642 0.0 10181021
20:00+17e66671 0.0 1018855
29 october, fri
fri2923:00+18ene66620 0.0 1019919
02:00+17ene67640 0.0 1018994
05:00+17e88644 0.0 10171101
08:00+17e886433 0.0 10181195
11:00+17e7765100 0.0 10181214
14:00+17e8866100 0.0 10181055
17:00+17e6569100 0.1 1017851
20:00+17e7673100 0.1 1018855